Date String (YYYY-MM-DD hh:mm:ss) UTC,Instrument flags,absolute air pressure of the measurement (hPa),sample flow rate (lpm),inlet stack bypass flow (lpm),air temperature of the measurement (°C),ambient temperature measured by the external sensor (°C),aerosol sample conditioner tube jacket temperature (°C),OPC LED temperature (°C),internal box temperature (°C),relative humidity of the measurement (%),span deviation,mass concentration of particles derived from Lorenz-Mie calculation of OPC scattering (μg/m³),mass concentration of particles derived from Lorenz-Mie calculation of OPC scattering (μg/m³),mass concentration of particles derived from Lorenz-Mie calculation of OPC scattering (μg/m³)
DateTimeUTC,F1_M11,P_M11,Q1_M11,Q2_M11,T1_M11,T2_M11,T3_M11,T4_M11,T5_M11,U1_M11,ZSPAN_M11,X2_M11,X0_M11,X1_M11
2023-09-07 07:00:00,SystemResetWarning,0831.0,5.01,000.00,028.3,024.6,000.0,036.7,029.5,18.8,0001.8,0005.55,0012.58,0004.74
2023-09-07 07:01:00,SystemResetWarning,0831.0,5.01,000.00,028.2,024.6,000.0,036.6,029.4,19.1,0001.6,0005.57,0012.73,0004.74
2023-09-07 07:02:00,SystemResetWarning,0831.1,5.00,000.00,028.1,024.8,000.0,036.6,029.3,19.7,0001.3,0005.58,0012.88,0004.75
2023-09-07 07:03:00,SystemResetWarning,0831.1,5.00,000.00,028.1,025.2,000.0,036.6,029.4,19.8,0001.6,0005.55,0013.07,0004.74
2023-09-07 07:04:00,SystemResetWarning,0831.1,5.00,000.00,028.1,025.5,000.0,036.6,029.4,19.3,0001.8,0005.56,0014.34,0004.72
2023-09-07 07:05:00,SystemResetWarning,0831.1,5.00,000.00,028.1,025.8,000.0,036.6,029.5,19.1,0001.8,0005.55,0014.82,0004.72
2023-09-07 07:06:00,SystemResetWarning,0831.1,4.99,000.00,028.1,026.1,000.0,036.6,029.6,18.9,0001.6,0005.52,0014.39,0004.73
2023-09-07 07:07:00,SystemResetWarning,0831.2,5.00,000.00,028.1,026.3,000.0,036.6,029.6,19.0,0001.9,0005.49,0014.45,0004.71
2023-09-07 07:08:00,SystemResetWarning,0831.1,5.00,000.00,028.1,026.5,000.0,036.6,029.7,19.8,0002.1,0005.48,0013.63,0004.69
2023-09-07 07:09:00,SystemResetWarning,0831.0,5.00,000.00,028.2,026.7,000.0,036.6,029.7,19.3,0002.1,0005.46,0013.62,0004.70
2023-09-07 07:10:00,SystemResetWarning,0831.0,5.00,000.00,028.2,026.8,000.0,036.6,029.8,19.3,0002.2,0005.48,0013.62,0004.69
2023-09-07 07:11:00,SystemResetWarning,0831.1,5.00,000.00,028.2,026.9,000.0,036.6,029.8,19.2,0002.0,0005.51,0013.87,0004.69
2023-09-07 07:12:00,SystemResetWarning,0831.1,4.99,000.00,028.2,027.0,000.0,036.6,029.8,18.6,0002.0,0005.48,0014.01,0004.68
2023-09-07 07:13:00,SystemResetWarning,0831.1,4.99,000.00,028.3,027.1,000.0,036.6,029.9,17.9,0002.1,0005.43,0013.90,0004.66
2023-09-07 07:14:00,SystemResetWarning,0831.1,5.00,000.00,028.3,027.1,000.0,036.7,029.9,18.5,0002.0,0005.43,0013.76,0004.66
2023-09-07 07:15:00,SystemResetWarning,0831.0,5.00,000.00,028.3,027.2,000.0,036.7,029.9,18.7,0001.9,0005.39,0012.81,0004.66
2023-09-07 07:16:00,SystemResetWarning,0831.0,5.01,000.00,028.3,027.2,000.0,036.7,030.0,18.9,0002.1,0005.37,0012.14,0004.67
2023-09-07 07:17:00,SystemResetWarning,0831.0,5.01,000.00,028.4,027.3,000.0,036.7,030.0,18.7,0002.2,0005.38,0012.21,0004.66
2023-09-07 07:18:00,SystemResetWarning,0831.0,4.99,000.00,028.4,027.3,000.0,036.7,030.0,18.1,0002.0,0005.37,0011.71,0004.67
2023-09-07 07:19:00,SystemResetWarning,0831.0,4.99,000.00,028.4,027.4,000.0,036.8,030.0,17.8,0001.6,0005.36,0011.87,0004.66
2023-09-07 07:20:00,SystemResetWarning,0831.0,5.00,000.00,028.5,027.4,000.0,036.8,030.1,18.6,0001.6,0005.37,0011.94,0004.66
2023-09-07 07:21:00,SystemResetWarning,0831.0,5.01,000.00,028.5,027.4,000.0,036.8,030.1,18.9,0002.0,0005.41,0011.52,0004.69
2023-09-07 07:22:00,SystemResetWarning,0830.9,5.00,000.00,028.5,027.5,000.0,036.8,030.2,19.1,0001.8,0005.41,0011.79,0004.71
2023-09-07 07:23:00,SystemResetWarning,0831.1,5.00,000.00,028.5,027.5,000.0,036.8,030.2,18.7,0001.8,0005.47,0011.97,0004.73
2023-09-07 07:24:00,SystemResetWarning,0831.1,4.99,000.00,028.6,027.0,000.0,036.8,030.1,18.5,0001.9,0005.51,0011.98,0004.75
2023-09-07 07:25:00,SystemResetWarning,0831.0,5.01,000.00,028.5,025.2,000.0,036.8,029.7,17.3,0001.9,0005.53,0012.00,0004.75
2023-09-07 07:26:00,SystemResetWarning,0830.9,5.01,000.00,028.4,024.6,000.0,036.7,029.5,16.6,0001.6,0005.53,0012.17,0004.74
2023-09-07 07:27:00,SystemResetWarning,0830.9,5.01,000.00,028.2,024.7,000.0,036.7,029.4,17.6,0001.1,0005.51,0012.33,0004.71
2023-09-07 07:28:00,SystemResetWarning,0830.9,4.99,000.00,028.2,025.0,000.0,036.7,029.4,17.9,0001.3,0005.51,0012.97,0004.69
2023-09-07 07:29:00,SystemResetWarning,0830.9,5.00,000.00,028.1,025.4,000.0,036.7,029.4,16.6,0001.8,0005.52,0014.23,0004.69
2023-09-07 07:30:00,SystemResetWarning,0830.9,5.00,000.00,028.1,025.7,000.0,036.7,029.5,16.3,0002.0,0005.53,0014.70,0004.70
2023-09-07 07:31:00,SystemResetWarning,0830.9,5.01,000.00,028.1,026.0,000.0,036.6,029.6,16.6,0001.9,0005.50,0014.33,0004.71
2023-09-07 07:32:00,SystemResetWarning,0830.9,5.00,000.00,028.1,026.2,000.0,036.6,029.6,16.6,0001.8,0005.45,0014.77,0004.71
2023-09-07 07:33:00,SystemResetWarning,0830.9,4.99,000.00,028.2,026.4,000.0,036.6,029.7,16.8,0001.7,0005.40,0015.78,0004.68
2023-09-07 07:34:00,SystemResetWarning,0830.9,5.00,000.00,028.2,026.6,000.0,036.6,029.7,18.5,0001.7,0005.36,0015.30,0004.66
2023-09-07 07:35:00,SystemResetWarning,0830.9,5.00,000.00,028.2,026.8,000.0,036.6,029.8,17.9,0001.7,0005.36,0015.91,0004.65
2023-09-07 07:36:00,SystemResetWarning,0830.9,5.00,000.00,028.2,026.9,000.0,036.7,029.8,18.2,0001.6,0005.37,0017.07,0004.65
2023-09-07 07:37:00,SystemResetWarning,0830.9,5.00,000.00,028.3,027.0,000.0,036.7,029.9,18.4,0001.6,0005.36,0017.65,0004.65
2023-09-07 07:38:00,SystemResetWarning,0830.9,5.00,000.00,028.3,027.1,000.0,036.7,030.0,18.8,0001.9,0005.40,0018.15,0004.65
2023-09-07 07:39:00,SystemResetWarning,0830.9,5.01,000.00,028.3,027.2,000.0,036.7,030.0,18.9,0002.0,0005.40,0018.26,0004.65
2023-09-07 07:40:00,SystemResetWarning,0830.8,5.00,000.00,028.4,027.2,000.0,036.7,030.0,19.4,0001.9,0005.38,0017.18,0004.62
2023-09-07 07:41:00,SystemResetWarning,0830.8,4.99,000.00,028.4,027.3,000.0,036.7,030.1,19.6,0002.0,0005.38,0016.44,0004.61
2023-09-07 07:42:00,SystemResetWarning,0830.9,5.00,000.00,028.4,027.4,000.0,036.7,030.1,19.6,0002.1,0005.42,0016.46,0004.59
2023-09-07 07:43:00,SystemResetWarning,0830.9,5.01,000.00,028.5,027.4,000.0,036.8,030.2,19.1,0001.8,0005.38,0016.10,0004.55
2023-09-07 07:44:00,SystemResetWarning,0830.9,5.01,000.00,028.5,027.5,000.0,036.8,030.2,16.9,0001.8,0005.36,0014.93,0004.55
2023-09-07 07:45:00,SystemResetWarning,0830.9,4.99,000.00,028.5,027.5,000.0,036.8,030.2,15.8,0002.0,0005.38,0014.59,0004.55
2023-09-07 07:46:00,SystemResetWarning,0830.9,4.99,000.00,028.5,027.5,000.0,036.8,030.2,15.7,0002.0,0005.35,0013.96,0004.54
2023-09-07 07:47:00,SystemResetWarning,0830.9,5.00,000.00,028.6,027.6,000.0,036.8,030.2,14.7,0002.1,0005.30,0013.64,0004.51
2023-09-07 07:48:00,SystemResetWarning,0830.9,5.00,000.00,028.6,027.5,000.0,036.9,030.2,14.6,0002.2,0005.26,0013.24,0004.47
2023-09-07 07:49:00,SystemResetWarning,0830.8,4.99,000.00,028.6,026.2,000.0,036.8,029.9,14.0,0002.6,0005.21,0012.82,0004.43
2023-09-07 07:50:00,SystemResetWarning,0830.8,5.01,000.00,028.4,024.8,000.0,036.8,029.6,15.3,0002.3,0005.20,0012.50,0004.42
2023-09-07 07:51:00,SystemResetWarning,0830.8,5.01,000.00,028.4,024.7,000.0,036.7,029.5,15.7,0002.2,0005.23,0012.57,0004.43
2023-09-07 07:52:00,SystemResetWarning,0830.8,5.01,000.00,028.3,024.9,000.0,036.7,029.5,15.6,0001.8,0005.25,0013.05,0004.46
2023-09-07 07:53:00,SystemResetWarning,0830.8,5.00,000.00,028.2,025.2,000.0,036.7,029.5,15.5,0001.4,0005.22,0013.26,0004.43
2023-09-07 07:54:00,SystemResetWarning,0830.8,5.00,000.00,028.2,025.6,000.0,036.7,029.6,15.5,0001.7,0005.21,0013.16,0004.43
2023-09-07 07:55:00,SystemResetWarning,0830.7,5.01,000.00,028.2,025.9,000.0,036.7,029.6,15.4,0001.9,0005.17,0012.43,0004.40
2023-09-07 07:56:00,SystemResetWarning,0830.7,5.00,000.00,028.2,026.2,000.0,036.7,029.7,16.0,0002.2,0005.15,0012.33,0004.39
2023-09-07 07:57:00,SystemResetWarning,0830.7,4.99,000.00,028.2,026.4,000.0,036.7,029.8,15.8,0002.6,0005.15,0012.67,0004.39
2023-09-07 07:58:00,SystemResetWarning,0830.8,4.99,000.00,028.2,026.6,000.0,036.7,029.8,15.6,0002.9,0005.22,0012.56,0004.42
2023-09-07 07:59:00,SystemResetWarning,0830.7,5.00,000.00,028.3,026.8,000.0,036.7,029.8,15.8,0002.9,0005.27,0012.03,0004.45
